Weather in Basel

Switzerland     47˚33′16″N   7˚35′25″E
temp.,
°C
wind,
m/s
gust,
m/s
humid.,
%
clouds,
%
prec.,
mm/h
press.,
hPa
HPBL,
m
29 november, sun
sun2901:00e137440 0.0 1018252
04:00ene138562 0.0 1019218
07:00−1˚ne138978 0.0 1020233
10:00ene247896 0.0 1021440
13:00+3˚ne246298 0.0 1021624
16:00+1˚nne236970 0.0 1021375
19:00−1˚ne138034 0.0 1023294
22:00−1˚e13770 0.0 1024238
30 november, mon
mon3001:00−2˚e11800 0.0 102557
04:00−2˚ese11840 0.0 102451
07:00−2˚se11840 0.0 102648
10:00e12710 0.0 1027208
13:00+3˚ne11580 0.0 1025322
16:00+2˚wnw11690 0.0 102593
19:00ssw11770 0.0 102622
22:00−1˚s11760 0.0 102522
1 december, tue
tue101:00s116133 0.0 102421
04:00sse1278100 1.4 1022112
07:00+2˚ssw1195100 3.9 101946
10:00+3˚wsw2897100 2.5 1018486
13:00+2˚w4896100 3.5 1017430
16:00+3˚wsw378889 0.3 1017421
19:00+2˚ssw129074 0.3 101895
22:00ese119144 0.0 101826
2 december, wed
wed201:00se118961 0.0 101823
04:00ene1192100 0.0 101874
07:00−1˚n119697 0.1 101759
10:00nnw1293100 0.3 1017192
13:00+1˚nnw119099 0.4 1015200
16:00+1˚nnw1193100 0.1 1014161
19:00+1˚wnw1195100 0.1 101588
22:00+1˚nw1196100 0.0 1016104
3 december, thu
thu301:00ssw0193100 0.0 1016129
04:00ssw1188100 0.0 1015181
07:00−1˚se118781 0.0 101323
10:00e018334 0.0 1012197
13:00+2˚ese227465 0.0 1008609
16:00+1˚ese1278100 0.0 1006300
19:00−1˚sse128468 0.0 100556
22:00−2˚s11850 0.0 100250